Location: Unspecified
(44.0704°N, 88.6889°W)
Time: 11:34:10
(UTC+02:00)

Vanguard 2 Rocket - Pass Details

Date: 10 August 2020
Orbit: 554 x 3326 km, 32.9° (Epoch: 22 September)

Event Time Altitude Azimuth Distance (km) Brightness Sun altitude
Rises 06:12:18 0° 269° (W) 4,855 11.0 -25.6°
Reaches altitude 10° 06:15:19 10° 261° (W) 4,200 10.5 -25.9°
Maximum altitude 06:26:11 38° 199° (SSW) 3,440 9.4 -26.8°
Enters shadow 06:29:44 35° 175° (S) 3,817 9.5 -27.0°
